Waarnemingen

Advertentie
Mijn weer
Culdrose, Groot Brittannië (3809): temperatuur & dauwpunt: 26.03.2020 19:00:00 - 01.04.2020 19:00:00 (BST)Culdrose, Groot Brittannië (3809): windsnelheid & windstoten: 26.03.2020 19:00:00 - 01.04.2020 19:00:00 (BST)Culdrose, Groot Brittannië (3809): windrichting: 26.03.2020 19:00:00 - 01.04.2020 19:00:00 (BST)Culdrose, Groot Brittannië (3809): luchtdruk: 26.03.2020 19:00:00 - 01.04.2020 19:00:00 (BST)Culdrose, Groot Brittannië (3809): zicht: 26.03.2020 19:00:00 - 01.04.2020 19:00:00 (BST)Culdrose, Groot Brittannië (3809): neerslag: 26.03.2020 19:00:00 - 01.04.2020 19:00:00 (BST)
Datum & Tijd tt [°C] td [°C] ff [km/u] ff [kn] fx [km/u] fx [kn] dd ppp [hPa] vv [km] rr [mm]
01.04.2020 19:00:00 7,6 1,4 21 11 - - N 1022,9 20 0,0
01.04.2020 18:00:00 7,9 -0,1 29 16 - - NNO 1023,0 40 0,0
01.04.2020 17:00:00 8,7 0,4 22 12 - - NNO 1023,2 10 0,0
01.04.2020 16:00:00 9,7 1,1 22 12 - - N 1023,4 10 0,0
01.04.2020 15:00:00 9,3 1,2 26 14 - - N 1023,7 18 0,0
01.04.2020 14:00:00 9,3 0,7 21 11 - - NNO 1024,1 10 0,0
01.04.2020 13:00:00 9,0 1,2 22 12 - - NNO 1024,7 20 0,0
01.04.2020 12:00:00 8,2 0,4 22 12 - - NNO 1025,3 20 0,0
01.04.2020 11:00:00 8,2 0,9 26 14 46 25 NO 1025,7 10 0,0
01.04.2020 10:00:00 7,3 1,9 15 8 - - NO 1025,9 10 0,0
01.04.2020 09:00:00 5,3 2,3 11 6 - - NO 1026,2 10 0,0
01.04.2020 08:00:00 1,9 0,3 9 5 - - NO 1026,4 18 0,0
01.04.2020 07:00:00 0,8 -1,0 13 7 - - NO 1026,1 10 0,0
01.04.2020 06:00:00 0,5 -2,2 13 7 - - NO 1026,2 20 0,0
01.04.2020 05:00:00 2,4 -0,6 22 12 - - NO 1026,5 21 0,0
01.04.2020 04:00:00 1,9 -0,7 18 10 - - NO 1026,9 22 0,0
01.04.2020 03:00:00 1,6 -1,5 15 8 - - ONO 1027,6 28 0,0
01.04.2020 02:00:00 2,4 -0,6 16 9 - - NO 1027,9 20 0,0
01.04.2020 01:00:00 2,9 -0,3 16 9 - - NO 1028,0 21 0,0
01.04.2020 00:00:00 2,5 -0,7 15 8 - - NO 1028,4 10 0,0
31.03.2020 23:00:00 2,8 -0,5 16 9 - - NO 1028,6 10 0,0
31.03.2020 22:00:00 4,2 0,2 16 9 - - ONO 1028,8 10 0,0
31.03.2020 21:00:00 5,0 0,2 21 11 - - NO 1028,7 22 0,0
31.03.2020 20:00:00 6,6 1,8 16 9 - - ONO 1028,6 27 0,0
31.03.2020 19:00:00 8,3 2,3 28 15 - - O 1028,5 10 0,0
31.03.2020 18:00:00 9,0 1,3 37 20 52 28 O 1028,5 10 0,0
31.03.2020 17:00:00 9,7 1,8 39 21 54 29 O 1028,9 30 0,0
31.03.2020 16:00:00 9,4 1,9 29 16 55 30 ONO 1029,3 10 0,0
31.03.2020 15:00:00 9,5 1,6 29 16 52 28 O 1029,9 10 0,0
31.03.2020 14:00:00 9,2 2,4 29 16 54 29 O 1030,5 10 0,0
31.03.2020 13:00:00 8,7 1,5 46 25 55 30 O 1030,7 10 0,0
31.03.2020 12:00:00 7,9 0,6 34 18 57 31 O 1031,1 10 0,0
31.03.2020 11:00:00 7,9 1,8 37 20 59 32 ONO 1031,5 10 0,0
31.03.2020 10:00:00 6,1 1,3 28 15 50 27 ONO 1031,7 10 0,0
31.03.2020 09:00:00 5,0 0,9 28 15 52 28 NO 1031,5 10 0,0
31.03.2020 08:00:00 4,7 1,7 28 15 - - NO 1031,2 10 0,0
31.03.2020 07:00:00 4,8 1,8 26 14 - - NO 1030,9 18 0,0
31.03.2020 06:00:00 5,8 2,0 31 17 - - NO 1030,6 35 0,0
31.03.2020 05:00:00 5,9 2,1 29 16 - - NO 1030,8 20 0,0
31.03.2020 04:00:00 5,7 2,3 24 13 - - NO 1030,9 29 0,0
31.03.2020 03:00:00 4,8 1,5 29 16 - - NO 1031,4 19 0,0
31.03.2020 02:00:00 5,7 1,7 29 16 - - NO 1031,8 20 0,0
31.03.2020 01:00:00 5,3 1,3 29 16 - - NO 1031,9 21 0,0
31.03.2020 00:00:00 6,1 1,4 31 17 48 26 NO 1032,1 28 0,0
30.03.2020 23:00:00 7,1 1,7 31 17 - - NO 1032,2 10 0,0
30.03.2020 22:00:00 7,4 1,6 29 16 - - NO 1032,2 10 0,0
30.03.2020 21:00:00 7,4 2,5 28 15 - - NNO 1032,2 30 0,0
30.03.2020 20:00:00 7,5 1,8 34 18 - - NNO 1031,7 10 0,0
30.03.2020 19:00:00 8,0 2,5 31 17 46 25 NNO 1031,7 30 0,0
30.03.2020 18:00:00 8,5 2,4 37 20 46 25 NNO 1031,9 30 0,0
30.03.2020 17:00:00 9,0 1,7 35 19 48 26 NNO 1032,3 30 0,0
30.03.2020 16:00:00 8,9 1,4 39 21 48 26 NNO 1032,9 10 0,0
30.03.2020 15:00:00 8,5 2,3 28 15 - - NNO 1033,7 10 0,0
30.03.2020 14:00:00 8,6 0,9 26 14 - - NNO 1034,6 10 0,0
30.03.2020 13:00:00 7,8 -0,1 29 16 - - NO 1035,3 30 0,0
30.03.2020 12:00:00 7,6 -0,5 34 18 - - NO 1036,3 10 0,0
30.03.2020 11:00:00 6,9 -2,1 29 16 - - NO 1036,9 10 0,0
30.03.2020 10:00:00 5,8 -1,4 29 16 - - NO 1037,7 30 0,0
30.03.2020 09:00:00 3,4 -2,1 31 17 - - NO 1038,3 10 0,0
30.03.2020 08:00:00 1,6 -2,7 26 14 - - NNO 1038,4 10 0,0
30.03.2020 07:00:00 0,8 -3,0 21 11 - - NNO 1038,5 20 0,0
30.03.2020 06:00:00 0,4 -2,8 24 13 - - NNO 1038,5 22 0,0
30.03.2020 05:00:00 1,5 -3,0 26 14 - - NO 1038,9 21 0,0
30.03.2020 04:00:00 0,8 -3,6 21 11 - - NO 1039,2 23 0,0
30.03.2020 03:00:00 1,3 -3,6 21 11 - - NNO 1040,0 22 0,0
30.03.2020 02:00:00 1,7 -3,5 28 15 - - NO 1039,9 24 0,0
30.03.2020 01:00:00 3,2 -3,4 31 17 - - NO 1040,3 23 0,0
30.03.2020 00:00:00 3,8 -3,5 34 18 - - NO 1040,5 23 0,0
29.03.2020 23:00:00 3,8 -3,6 29 16 - - NO 1040,3 22 0,0
29.03.2020 22:00:00 4,1 -3,7 22 12 - - NO 1040,0 30 0,0
29.03.2020 21:00:00 4,7 -3,9 22 12 - - NO 1039,7 24 0,0
29.03.2020 20:00:00 6,0 -3,9 28 15 54 29 NO 1039,2 30 0,0
29.03.2020 19:00:00 7,3 -4,3 44 24 59 32 NO 1038,5 35 0,0
29.03.2020 18:00:00 8,4 -4,4 42 23 61 33 NO 1038,2 35 0,0
29.03.2020 17:00:00 8,9 -4,4 41 22 57 31 NO 1038,1 30 0,0
29.03.2020 16:00:00 9,3 -2,6 41 22 57 31 NO 1038,1 10 0,0
29.03.2020 15:00:00 8,9 -2,9 35 19 63 34 ONO 1038,2 30 0,0
29.03.2020 14:00:00 7,1 -2,6 41 22 72 39 NO 1038,8 30 0,0
29.03.2020 13:00:00 7,7 -2,1 42 23 61 33 NO 1038,8 35 0,0
29.03.2020 12:00:00 5,6 -3,8 41 22 65 35 NO 1039,1 24 0,0
29.03.2020 11:00:00 5,8 -3,5 50 27 68 37 NO 1038,7 23 0,0
29.03.2020 10:00:00 5,2 -3,5 50 27 65 35 NO 1038,7 22 0,0
29.03.2020 09:00:00 4,0 -2,9 42 23 61 33 NO 1038,5 21 0,0
29.03.2020 08:00:00 3,2 -2,8 41 22 63 34 NO 1038,0 21 0,0
29.03.2020 07:00:00 2,8 -1,7 41 22 57 31 NO 1037,3 10 0,0
29.03.2020 06:00:00 2,9 -1,5 35 19 54 29 NO 1036,5 21 0,0
29.03.2020 05:00:00 3,1 -1,8 41 22 65 35 NO 1035,8 21 0,0
29.03.2020 04:00:00 4,0 -1,8 37 20 57 31 NO 1035,4 23 0,0
29.03.2020 03:00:00 5,0 -2,4 42 23 63 34 ONO 1035,1 25 0,0
29.03.2020 02:00:00 5,9 -0,5 41 22 68 37 ONO 1034,7 27 0,0
29.03.2020 01:00:00 6,6 -0,8 42 23 63 34 ONO 1033,9 10 0,0
29.03.2020 00:00:00 6,5 0,8 31 17 50 27 NO 1033,2 30 0,0
28.03.2020 23:00:00 7,1 1,0 35 19 50 27 NO 1032,2 30 0,0
28.03.2020 22:00:00 6,9 1,8 28 15 - - NO 1031,7 10 0,0
28.03.2020 21:00:00 7,8 2,1 35 19 54 29 NO 1031,1 10 0,0
28.03.2020 20:00:00 8,7 2,5 35 19 52 28 NO 1030,2 30 0,0
28.03.2020 19:00:00 10,2 2,8 35 19 54 29 NO 1029,1 30 0,0
28.03.2020 18:00:00 11,2 3,2 39 21 55 30 NO 1028,2 10 0,0
28.03.2020 17:00:00 12,7 4,1 37 20 48 26 ONO 1027,7 10 0,0
28.03.2020 16:00:00 12,8 2,3 35 19 50 27 NO 1027,5 25 0,0
28.03.2020 15:00:00 13,0 1,1 26 14 52 28 NO 1027,5 15 0,0
28.03.2020 14:00:00 12,5 1,3 29 16 50 27 NO 1027,7 10 0,0
28.03.2020 13:00:00 11,6 2,1 26 14 55 30 ONO 1027,6 10 0,0
28.03.2020 12:00:00 10,1 2,4 34 18 52 28 ONO 1027,7 16 0,0
28.03.2020 11:00:00 8,5 2,1 34 18 - - NO 1027,5 14 0,0
28.03.2020 10:00:00 6,8 1,6 26 14 - - NO 1027,5 14 0,0
28.03.2020 09:00:00 5,0 0,7 22 12 - - NO 1026,9 12 0,0
28.03.2020 08:00:00 2,6 -0,5 21 11 - - NNO 1026,7 9 0,0
28.03.2020 07:00:00 2,2 -1,5 22 12 - - NO 1026,1 12 0,0
28.03.2020 06:00:00 3,5 -1,6 28 15 - - NO 1025,6 13 0,0
28.03.2020 05:00:00 3,9 -0,9 26 14 - - NO 1025,3 12 0,0
28.03.2020 04:00:00 3,2 -1,2 22 12 - - NO 1025,2 11 0,0
28.03.2020 03:00:00 4,8 -0,2 24 13 - - NO 1025,2 11 0,0
28.03.2020 02:00:00 5,3 1,4 22 12 - - NO 1025,2 10 0,0
28.03.2020 01:00:00 6,2 2,6 28 15 - - NO 1025,1 8 0,0
28.03.2020 00:00:00 6,5 3,7 31 17 - - NNO 1025,1 7 0,0
27.03.2020 23:00:00 5,7 2,0 22 12 - - NNO 1025,0 9 0,0
27.03.2020 22:00:00 4,9 1,0 15 8 - - NNO 1024,8 7 0,0
27.03.2020 21:00:00 5,7 0,7 15 8 - - NNO 1024,6 9 0,0
27.03.2020 20:00:00 6,7 0,7 11 6 - - NNO 1024,1 10 0,0
27.03.2020 19:00:00 8,6 1,0 16 9 - - ONO 1023,5 14 0,0
27.03.2020 18:00:00 9,8 0,9 21 11 - - O 1023,0 15 0,0
27.03.2020 17:00:00 10,4 -0,5 26 14 - - O 1022,7 15 0,0
27.03.2020 16:00:00 11,1 -0,1 26 14 - - O 1023,0 14 0,0
27.03.2020 15:00:00 11,1 -1,5 31 17 - - O 1023,2 15 0,0
27.03.2020 14:00:00 10,8 -1,3 31 17 46 25 O 1023,4 14 0,0
27.03.2020 13:00:00 10,5 -1,6 28 15 - - ONO 1023,8 10 0,0
27.03.2020 12:00:00 10,0 0,9 16 9 - - ONO 1024,1 10 0,0
27.03.2020 11:00:00 7,5 1,1 13 7 - - ONO 1024,1 10 0,0
27.03.2020 10:00:00 7,2 2,1 16 9 - - ONO 1023,8 10 0,0
27.03.2020 09:00:00 4,6 1,3 15 8 - - ONO 1023,5 10 0,0
27.03.2020 08:00:00 1,6 -0,2 18 10 - - ONO 1023,0 10 0,0
27.03.2020 07:00:00 1,9 -0,7 11 6 - - NO 1022,6 10 0,0
27.03.2020 06:00:00 1,8 -0,1 13 7 - - NO 1022,4 9 0,0
27.03.2020 05:00:00 1,1 -1,0 13 7 - - NNO 1022,2 7 0,0
27.03.2020 04:00:00 1,3 -1,2 15 8 - - NO 1022,3 9 0,0
27.03.2020 03:00:00 2,1 -0,1 15 8 - - ONO 1022,5 7 0,0
27.03.2020 02:00:00 2,3 -0,7 9 5 - - NO 1022,7 10 0,0
27.03.2020 01:00:00 3,3 0,4 9 5 - - ONO 1022,7 9 0,0
27.03.2020 00:00:00 1,9 -2,1 8 4 - - O 1022,8 8 0,0
26.03.2020 23:00:00 4,4 -1,2 4 2 - - ONO 1022,5 12 0,0
26.03.2020 22:00:00 5,8 0,9 4 2 - - N 1022,3 7 0,0
26.03.2020 21:00:00 6,2 0,2 8 4 - - ONO 1022,2 11 0,0
26.03.2020 20:00:00 7,2 0,5 11 6 - - ONO 1021,6 15 0,0
26.03.2020 19:00:00 - - - - - - - - - -

tt = temperatuur
td = dauwpunt
ff = windsnelheid
fx = windstoten
dd = windrichting
ppp = luchtdruk
vv = zicht
rr = neerslag

Weerstations in de omgeving